Wind_Speed
15 16 16 16 16 16 16 16 15 15 14 14 13 13 14 14 15 16 16 17 17 18 19 19 19 18 18 18 16 15 15 14 14 13 11 11 11 11 10 10 10 9 9
16 16 16 16 16 16 16 15 15 15 14 13 13 13 13 14 15 15 15 17 18 18 19 20 19 19 18 18 18 16 16 16 15 14 13 12 12 12 11 11 10 9 8
16 17 17 17 16 16 16 15 15 14 13 13 12 12 12 13 14 15 15 16 17 18 19 20 20 19 19 19 19 19 18 17 16 16 15 14 13 13 13 12 11 10 9
17 17 17 17 17 17 16 15 14 14 13 12 11 11 11 13 14 14 15 16 17 19 19 20 21 21 19 20 20 19 19 18 17 17 17 16 15 15 15 14 13 11 10
18 18 18 18 17 17 16 15 14 13 13 12 11 10 10 11 13 14 15 16 18 19 20 20 21 21 21 21 21 21 20 19 19 18 18 17 17 16 16 15 15 13 12
18 18 18 18 18 17 16 15 14 13 12 11 11 10 10 11 12 13 15 15 17 19 19 20 21 21 21 22 23 22 21 21 20 20 19 19 18 18 18 17 16 15 13
18 18 18 18 18 18 16 16 15 13 12 12 11 10 10 10 12 12 14 16 16 17 19 19 20 22 21 23 24 23 22 22 22 21 21 20 20 20 19 19 17 16 14
18 18 19 19 19 18 17 16 15 13 13 11 10 9 9 10 11 11 13 15 16 17 18 19 21 21 21 22 24 24 24 23 23 22 22 22 22 22 21 20 19 18 16
18 19 19 19 19 18 17 16 15 14 13 11 10 9 9 9 10 11 12 14 16 17 18 18 19 21 21 21 23 23 24 24 24 23 23 22 22 23 22 21 21 20 19
18 19 19 19 19 18 17 16 16 14 13 12 10 9 9 9 9 10 12 14 15 16 17 18 19 20 21 21 22 23 24 25 25 25 23 23 23 23 23 23 22 21 20
18 19 19 19 19 18 17 17 16 15 13 12 10 9 9 9 9 9 11 13 15 16 16 18 19 20 20 21 22 23 24 25 25 25 24 24 24 24 24 24 24 23 22
18 19 19 19 19 18 17 17 17 15 14 12 11 10 9 9 8 9 10 12 14 16 16 18 19 20 20 21 22 23 24 25 25 25 25 25 25 25 25 26 25 24 24
18 19 19 19 18 18 18 17 16 15 14 13 11 10 9 9 9 9 9 11 13 15 16 18 18 19 20 21 22 23 24 25 26 26 26 26 26 26 25 27 27 26 25
19 19 19 19 19 19 18 17 16 15 14 13 12 11 10 9 9 9 10 11 13 14 16 17 18 19 21 22 22 23 25 26 26 26 27 27 27 26 26 27 28 27 27
19 19 19 19 19 19 19 18 17 15 14 13 12 12 12 11 10 10 11 12 13 14 15 16 17 18 20 22 22 23 24 26 26 26 27 27 27 27 27 27 28 27 26
20 20 20 20 20 20 19 18 17 16 15 13 13 12 12 11 10 11 11 13 14 14 15 16 16 17 19 21 21 22 23 24 26 26 26 26 27 26 26 26 26 27 27
21 21 21 21 21 21 20 19 18 17 16 15 14 13 12 12 12 12 12 13 14 15 15 16 17 17 18 19 20 22 23 23 25 26 27 27 27 27 27 27 26 27 28
23 23 23 22 22 22 21 20 20 19 17 16 15 14 14 13 13 13 13 13 14 15 15 16 17 17 17 19 20 21 22 23 24 25 26 27 26 27 27 28 28 27 27
25 25 24 24 24 23 22 22 21 20 19 18 17 16 15 15 15 15 15 14 15 15 15 16 17 18 18 18 20 21 22 23 24 25 25 26 26 27 28 28 28 28 28
27 27 27 26 26 25 25 24 23 23 21 20 19 18 17 17 17 16 16 16 16 16 17 17 17 18 19 19 19 21 22 22 23 25 25 26 26 27 28 29 29 30 30
29 29 29 29 28 28 27 27 26 25 24 23 21 20 20 19 19 18 18 18 18 18 19 18 18 19 20 20 20 21 22 23 23 24 25 26 26 27 28 29 29 29 30
31 31 31 31 31 30 30 30 29 28 27 26 25 23 22 22 21 21 21 20 20 20 20 20 19 19 20 21 22 21 21 22 23 24 25 26 27 27 27 28 29 29 29
34 34 34 34 33 33 33 33 32 31 30 29 28 27 25 24 24 23 23 22 22 22 22 22 21 21 21 21 23 23 22 22 23 24 24 25 26 27 27 28 28 29 29
36 36 37 36 36 36 35 35 34 34 33 32 31 30 29 27 26 26 26 25 24 24 23 23 23 22 22 22 23 23 23 23 24 24 24 24 25 26 27 28 28 29 29
38 39 39 39 38 37 37 36 36 35 35 34 33 32 32 31 29 28 28 27 27 26 25 25 24 24 23 23 24 24 24 23 24 24 24 24 24 24 25 26 27 27 28
41 41 41 40 40 39 38 38 38 37 37 36 35 34 34 33 32 32 31 30 29 28 28 27 26 26 25 24 24 24 24 24 24 24 25 25 24 24 24 25 26 26 26
Wind_Direction
331 329 328 325 322 318 317 314 309 304 297 291 285 275 263 255 250 244 239 233 230 227 223 220 220 220 218 216 217 217 212 209 205 199 193 188 184 181 177 170 165 161 159
335 333 332 328 325 322 319 316 312 306 300 293 286 275 263 255 249 243 236 233 230 228 223 220 219 219 219 219 219 217 213 213 210 204 198 193 191 189 185 179 174 172 168
339 337 336 334 330 326 322 319 314 311 305 297 287 276 263 255 249 244 236 234 230 226 223 220 220 221 221 220 219 219 216 215 213 209 203 201 198 195 191 187 183 182 180
342 341 339 337 334 330 327 323 317 314 311 301 290 277 264 254 247 242 236 233 230 227 225 222 222 222 222 221 220 220 218 218 216 213 209 205 202 200 198 197 194 192 190
344 344 342 340 338 335 332 328 321 317 315 306 292 282 269 255 245 240 236 231 229 228 226 225 224 224 223 220 220 219 219 219 218 214 211 209 207 206 204 203 202 200 200
345 345 344 342 341 339 335 333 327 322 317 309 296 285 275 259 244 240 235 232 228 226 226 227 226 225 225 222 221 221 220 219 219 216 213 212 211 209 208 207 207 208 208
347 346 345 344 341 340 337 335 331 326 322 313 301 290 278 264 248 242 237 232 228 226 227 228 226 225 227 225 223 222 220 219 220 219 217 215 214 214 213 212 212 213 213
348 348 346 344 342 340 339 337 334 328 326 320 310 296 283 265 253 246 239 233 231 227 227 229 227 226 227 226 225 224 223 222 222 221 220 219 218 217 215 216 217 218 219
346 347 346 345 343 341 339 337 335 330 327 323 314 301 288 271 256 250 243 234 231 230 229 229 228 227 226 227 226 225 224 223 225 225 223 221 221 219 219 220 221 223 224
344 345 346 345 344 343 340 338 336 331 329 324 316 307 294 278 260 254 246 237 231 230 231 231 231 228 228 228 227 226 226 226 225 226 226 225 225 224 224 224 225 227 227
343 344 345 345 344 343 341 338 337 333 329 324 318 309 297 284 269 260 249 240 235 234 234 233 232 229 230 231 230 228 227 226 225 226 227 228 228 229 229 227 228 229 230
340 340 342 343 343 343 341 339 336 333 329 323 318 313 302 289 275 264 252 243 238 238 237 236 233 232 233 232 231 230 227 226 227 228 229 230 231 232 232 230 231 231 232
337 338 339 339 340 341 340 338 337 332 327 321 316 312 305 292 280 266 255 247 242 242 240 239 238 236 235 233 233 231 230 230 230 229 230 232 233 233 235 233 233 234 234
334 336 337 336 336 337 337 336 333 332 326 319 313 307 301 295 283 269 262 254 247 245 243 241 241 240 236 235 233 234 232 231 232 232 233 233 234 236 237 237 236 235 236
331 333 334 334 335 334 334 333 332 329 325 318 310 303 298 292 282 275 267 259 251 246 244 244 243 241 238 237 236 236 233 231 233 233 235 236 236 237 237 236 236 236 237
327 328 329 330 331 331 331 330 328 325 322 316 310 302 297 291 280 278 271 262 255 249 247 245 244 243 241 238 237 236 233 232 233 235 236 237 236 235 237 237 238 238 239
325 325 324 325 326 327 327 327 324 323 318 313 307 300 295 291 280 276 275 269 261 252 248 246 244 243 242 241 240 237 234 234 235 236 236 236 236 236 237 237 239 241 242
320 320 320 320 320 320 321 322 321 318 316 313 306 297 292 288 281 274 273 269 264 257 250 248 246 245 246 244 242 239 237 236 236 236 236 236 237 236 236 237 240 242 243
316 316 316 316 315 315 315 315 314 313 311 308 305 296 289 285 280 275 270 267 264 259 253 251 249 249 248 246 243 240 239 239 238 238 239 238 238 238 238 239 241 243 244
313 312 312 312 311 311 310 309 307 306 305 302 300 296 290 283 278 274 269 267 263 259 257 253 251 250 249 248 245 241 241 240 239 239 239 241 240 240 240 241 243 244 245
311 310 309 309 307 306 305 304 302 300 298 296 293 290 287 284 279 274 269 265 262 260 257 254 254 252 249 248 248 246 244 242 241 240 240 240 242 242 242 242 243 243 245
308 307 306 305 303 301 300 299 297 295 292 291 288 285 282 280 278 274 269 264 260 258 256 254 255 253 249 248 248 248 246 244 244 243 243 243 243 243 243 242 243 245 246
305 304 302 301 300 298 296 294 292 290 288 286 284 281 278 276 273 271 268 264 259 256 255 254 255 253 251 249 248 248 246 246 245 245 244 245 245 244 245 245 245 247 248
302 301 300 299 298 296 293 291 289 287 285 283 280 277 274 272 270 268 266 263 259 257 255 254 254 253 252 249 249 249 247 247 245 244 244 245 246 246 246 247 247 248 249
301 299 298 297 295 293 291 289 286 284 282 280 278 275 272 269 267 264 263 261 258 256 254 252 250 252 252 251 250 249 247 246 246 247 246 245 245 247 247 249 249 249 249
302 299 298 296 294 292 289 286 284 282 281 278 275 272 270 267 264 262 261 259 257 254 253 252 249 250 251 251 250 249 247 247 246 246 246 246 247 247 248 249 250 250 251
Height
5846 5844 5842 5839 5837 5835 5833 5831 5830 5829 5828 5827 5827 5827 5828 5829 5830 5832 5834 5836 5839 5842 5845 5848 5851 5854 5857 5859 5862 5865 5867 5869 5872 5874 5876 5878 5880 5881 5883 5885 5887 5888 5890
5844 5842 5839 5837 5835 5832 5830 5828 5827 5825 5824 5824 5823 5823 5824 5825 5827 5829 5831 5833 5836 5839 5842 5845 5848 5851 5854 5857 5860 5863 5866 5868 5871 5873 5875 5877 5879 5881 5884 5886 5888 5889 5891
5843 5840 5837 5835 5832 5830 5828 5825 5824 5822 5821 5821 5820 5820 5821 5822 5824 5826 5828 5830 5833 5836 5839 5842 5845 5848 5852 5855 5858 5860 5863 5866 5869 5872 5874 5877 5879 5881 5883 5886 5888 5890 5891
5841 5838 5835 5833 5830 5828 5825 5823 5821 5820 5818 5818 5817 5817 5818 5819 5821 5823 5825 5827 5830 5833 5836 5839 5842 5845 5849 5852 5855 5858 5861 5864 5867 5870 5873 5875 5878 5880 5883 5885 5887 5889 5891
5839 5837 5834 5831 5828 5826 5823 5821 5819 5817 5816 5815 5814 5814 5815 5816 5818 5819 5822 5824 5827 5829 5832 5835 5839 5842 5846 5849 5852 5855 5859 5862 5865 5868 5871 5874 5876 5879 5881 5884 5886 5889 5890
5838 5835 5832 5829 5827 5824 5821 5819 5817 5815 5814 5813 5812 5812 5812 5813 5814 5816 5818 5821 5823 5826 5829 5832 5835 5839 5842 5846 5849 5852 5856 5859 5862 5865 5868 5871 5874 5877 5880 5882 5885 5887 5889
5837 5834 5831 5828 5826 5823 5820 5817 5815 5813 5812 5811 5810 5810 5810 5810 5811 5813 5815 5818 5820 5823 5826 5829 5832 5835 5838 5842 5845 5849 5852 5856 5859 5862 5865 5868 5871 5874 5877 5880 5883 5886 5888
5836 5833 5831 5827 5824 5821 5819 5816 5814 5812 5810 5809 5808 5807 5808 5809 5809 5810 5812 5815 5817 5820 5823 5825 5828 5831 5835 5838 5842 5845 5849 5852 5856 5859 5862 5865 5869 5872 5875 5878 5881 5883 5886
5835 5832 5829 5826 5823 5820 5817 5815 5812 5810 5808 5807 5806 5806 5806 5806 5807 5808 5809 5812 5814 5817 5819 5821 5825 5828 5831 5835 5838 5842 5845 5849 5852 5856 5859 5862 5865 5869 5872 5875 5878 5881 5883
5834 5831 5828 5825 5822 5819 5816 5813 5811 5809 5807 5806 5804 5804 5804 5804 5805 5806 5807 5809 5811 5814 5816 5819 5822 5825 5828 5831 5834 5838 5841 5845 5848 5852 5855 5859 5862 5865 5868 5872 5875 5877 5880
5833 5830 5827 5824 5821 5818 5815 5812 5810 5807 5806 5804 5803 5802 5802 5802 5802 5804 5805 5806 5808 5811 5813 5816 5818 5821 5824 5827 5831 5834 5837 5841 5844 5848 5851 5854 5858 5861 5864 5868 5871 5874 5876
5831 5829 5826 5823 5820 5816 5814 5811 5808 5806 5804 5803 5802 5801 5800 5800 5801 5801 5802 5804 5805 5808 5810 5812 5815 5818 5820 5823 5826 5829 5833 5836 5840 5843 5847 5850 5853 5857 5860 5863 5866 5869 5872
5830 5827 5824 5821 5818 5815 5812 5810 5807 5805 5803 5801 5800 5799 5799 5799 5799 5799 5800 5801 5803 5804 5806 5809 5811 5814 5816 5819 5822 5825 5828 5832 5835 5839 5842 5845 5849 5852 5855 5858 5862 5865 5868
5828 5825 5822 5820 5817 5814 5811 5808 5805 5803 5801 5800 5798 5798 5797 5797 5797 5797 5798 5799 5800 5802 5803 5805 5807 5810 5812 5814 5817 5820 5823 5827 5830 5834 5837 5840 5844 5847 5850 5853 5856 5859 5862
5825 5823 5820 5817 5815 5812 5809 5806 5804 5802 5800 5798 5796 5796 5795 5795 5795 5795 5795 5796 5797 5798 5800 5802 5803 5805 5807 5810 5813 5815 5818 5821 5825 5828 5832 5835 5838 5841 5845 5847 5850 5854 5857
5822 5820 5817 5815 5812 5810 5807 5804 5802 5799 5798 5796 5794 5793 5793 5793 5792 5792 5792 5793 5793 5795 5796 5798 5799 5801 5803 5805 5808 5810 5813 5816 5819 5823 5826 5829 5832 5836 5839 5842 5845 5848 5851
5819 5816 5814 5812 5809 5807 5804 5802 5800 5797 5795 5794 5792 5791 5790 5790 5789 5789 5789 5790 5790 5791 5792 5794 5795 5797 5799 5801 5803 5805 5808 5810 5813 5817 5820 5823 5827 5830 5833 5836 5839 5842 5845
5815 5813 5810 5808 5805 5803 5801 5799 5797 5795 5793 5791 5789 5788 5787 5787 5786 5786 5786 5786 5786 5787 5788 5789 5791 5792 5794 5796 5798 5800 5802 5805 5808 5811 5814 5817 5820 5824 5827 5830 5833 5835 5838
5810 5808 5806 5803 5801 5799 5797 5795 5793 5791 5789 5788 5786 5785 5784 5783 5783 5782 5782 5782 5783 5783 5784 5785 5786 5788 5789 5791 5793 5795 5797 5799 5802 5805 5808 5811 5814 5817 5820 5823 5826 5829 5831
5805 5802 5800 5798 5795 5793 5791 5789 5787 5786 5785 5783 5782 5781 5780 5779 5778 5778 5778 5778 5779 5779 5780 5781 5782 5783 5785 5786 5788 5789 5791 5794 5796 5799 5802 5804 5807 5810 5813 5816 5819 5821 5824
5798 5795 5793 5791 5789 5787 5785 5783 5781 5780 5778 5777 5777 5775 5774 5774 5773 5773 5773 5773 5774 5774 5775 5776 5777 5778 5779 5781 5783 5784 5786 5788 5790 5792 5795 5798 5800 5803 5805 5808 5811 5813 5816
5790 5788 5785 5783 5781 5779 5777 5775 5773 5772 5771 5770 5769 5769 5768 5768 5767 5767 5767 5767 5768 5769 5770 5770 5772 5773 5774 5775 5776 5778 5779 5782 5784 5786 5789 5791 5793 5796 5798 5801 5803 5806 5808
5782 5779 5776 5774 5772 5770 5767 5765 5764 5762 5762 5761 5761 5761 5761 5760 5760 5760 5760 5760 5761 5762 5763 5764 5765 5766 5768 5769 5770 5771 5773 5775 5778 5779 5782 5784 5786 5789 5791 5793 5796 5798 5801
5772 5769 5766 5763 5761 5759 5756 5754 5753 5752 5751 5751 5750 5750 5751 5751 5752 5752 5752 5753 5754 5755 5756 5757 5759 5760 5761 5763 5764 5765 5767 5769 5771 5772 5774 5777 5779 5781 5783 5785 5788 5790 5792
5760 5757 5754 5751 5749 5747 5744 5742 5740 5740 5739 5739 5739 5739 5740 5741 5742 5742 5743 5744 5746 5747 5748 5750 5751 5753 5754 5755 5757 5758 5760 5762 5764 5766 5767 5770 5772 5774 5776 5778 5780 5782 5784
5747 5744 5741 5738 5735 5733 5731 5729 5727 5727 5727 5727 5727 5728 5728 5729 5730 5731 5732 5734 5736 5739 5740 5742 5743 5745 5746 5748 5749 5751 5753 5755 5757 5759 5760 5762 5764 5766 5768 5770 5772 5774 5776